Погода в Филадельфии

США     32°46′16″N   89°06′59″W
темп.,
°C
ветер,
м/с
пор.,
м/с
влажн.,
%
обл.,
%
осадки,
мм/ч
давл.,
гПа
погр.,
м
19 апреля, пн
пн1901:00+8зсз23940 0.0 101754
04:00+6зсз28984 0.0 1017197
07:00+6ссз29950 0.0 1018227
10:00+15с45480 0.0 10181063
13:00+19ссз23355 0.0 10171651
16:00+20ссз233599 0.0 10151832
19:00+15ссв2264100 0.0 101513
22:00+11ссв1176100 0.0 101710
20 апреля, вт
вт2001:00+10зсз1177100 0.0 101711
04:00+11св1173100 0.0 101610
07:00+11ююв1176100 0.0 101711
10:00+18ююз23534 0.0 1017723
13:00+21зюз34400 0.0 10161952
16:00+22з45395 0.0 10132267
19:00+17зюз27703 0.0 1014147
22:00+13юз26760 0.0 101591
21 апреля, ср
ср2101:00+9сз511820 0.0 1019460
04:00+6ссз41178100 0.0 1020537
07:00+4с498283 0.0 1023595
10:00+8с46533 0.0 1025885
13:00+13с46371 0.0 10241275
16:00+15с453650 0.0 10221508
19:00+11ссв25590 0.0 1023143
22:00+6ссв2470100 0.0 102474
22 апреля, чт
чт2201:00+5ссв22735 0.0 102440
04:00+4св117524 0.0 102414
07:00+5всв237183 0.0 102568
10:00+13всв224577 0.0 1026874
13:00+17ссв334052 0.0 10251461
16:00+17ссв32415 0.0 10231306
19:00+12св22644 0.0 102233
22:00+8всв257797 0.0 102392
23 апреля, пт
пт2301:00+8вюв2369100 0.0 102261
04:00+9всв2567100 0.0 1022146
07:00+9в2671100 0.0 1022167
10:00+10в3869100 0.0 1022301
13:00+16вюв4651100 0.0 1020718
16:00+17юв4653100 0.0 1018865
19:00+14вюв3870100 0.0 1016308
22:00+12ююв31097100 2.4 1016637